Wind_Speed
57 57 57 57 58 59 61 62 63 63 64 64 65 65 66 67 67 68 69 69 69 70 70 70 71 71 72 72 72 72 72 72 73 73 73 74 74 74 74 74 73 73 72 72 72 73 73 73 72 72 70 68 65 63 60 57 54 53 51 50 47 45 42 39 36 34 34 34 34 33 31 30 31 32 33 33 31 29 26 24 22 21 21 20 19
59 59 59 59 60 62 64 65 66 65 65 65 66 68 69 70 71 71 71 72 72 71 71 72 72 73 73 74 73 73 73 73 73 74 74 74 74 74 73 72 71 71 70 71 71 71 72 71 70 69 66 64 62 60 58 55 53 51 50 47 44 42 39 36 34 33 33 33 32 31 30 30 31 32 32 31 29 26 23 22 21 20 19 19 18
62 63 63 62 63 64 65 67 68 67 66 67 69 71 72 73 73 74 74 74 73 73 73 73 73 74 74 75 75 75 74 74 74 74 74 74 74 72 71 70 69 69 70 70 70 70 70 68 66 65 63 62 60 58 56 54 52 50 48 44 42 39 36 34 32 31 32 32 30 29 28 29 30 31 30 28 25 22 20 20 19 19 18 17 16
66 66 66 65 65 66 67 68 69 69 69 70 71 73 74 75 76 76 76 75 75 75 74 74 74 75 75 75 76 76 75 75 75 75 75 74 72 70 69 69 69 69 69 69 69 67 65 64 63 63 62 60 58 56 54 52 50 48 45 42 39 36 33 31 30 31 31 30 28 27 28 29 30 29 27 23 21 19 19 18 17 17 17 16 15
68 69 68 68 68 68 69 70 71 71 71 72 73 75 76 77 78 78 77 77 77 76 75 75 75 75 75 76 76 76 75 75 75 74 73 72 70 69 68 68 68 68 68 67 65 62 61 62 63 63 61 59 56 54 52 50 48 45 42 39 36 33 30 28 29 30 30 27 26 26 28 29 28 26 22 20 19 18 18 17 16 16 15 15 14
70 70 71 71 71 71 72 72 73 73 74 74 75 76 77 78 79 79 79 78 77 77 76 76 75 75 76 76 76 76 75 74 74 73 71 70 70 68 68 67 67 67 65 62 60 59 61 63 62 61 59 57 55 53 50 48 45 42 39 36 33 30 27 27 28 28 26 25 25 27 28 28 26 23 20 18 18 18 17 16 15 14 14 14 13
71 72 72 73 73 73 74 74 75 75 76 76 76 77 78 79 80 80 79 78 78 77 76 76 76 76 76 76 76 75 74 73 72 71 71 70 69 68 67 66 65 63 61 59 59 60 61 61 59 59 58 56 54 51 48 46 43 39 35 32 29 27 25 26 27 25 23 23 25 26 26 24 23 21 20 19 19 17 16 16 15 14 14 14 13
73 73 73 74 74 74 75 75 76 77 78 78 78 78 78 79 79 80 79 78 77 77 76 76 76 76 75 75 75 74 73 71 71 71 70 70 69 67 65 63 62 60 59 58 59 59 58 58 58 58 57 55 52 49 47 44 40 35 32 29 26 24 24 26 25 22 21 23 25 24 22 21 20 21 21 21 20 19 17 16 15 14 13 14 13
74 74 74 75 75 75 76 76 77 78 79 80 79 78 78 78 79 79 79 78 77 76 76 76 75 75 74 74 73 73 72 71 71 71 70 69 67 65 62 60 59 58 58 57 56 56 57 58 57 57 56 54 51 48 45 41 36 32 29 26 23 22 23 25 22 20 21 23 23 21 19 20 20 20 20 20 20 20 19 17 15 14 13 13 13
76 76 76 76 76 77 77 77 78 79 80 80 79 78 77 77 78 78 78 77 77 76 75 75 74 74 73 73 73 72 72 71 70 69 68 67 65 62 60 58 57 57 57 55 55 56 57 56 54 54 54 52 49 45 41 37 33 30 26 23 21 21 23 23 20 19 21 23 22 20 19 21 22 21 20 19 19 19 19 19 17 15 13 13 13
76 77 78 77 77 78 78 78 78 79 80 79 78 77 77 77 77 77 77 77 76 75 74 74 73 73 72 72 72 72 71 70 68 67 66 65 63 61 58 56 56 56 55 55 56 57 55 52 51 52 51 49 46 42 37 33 31 27 23 21 19 20 22 21 18 18 20 22 21 20 21 23 23 22 21 19 19 18 18 18 18 17 15 13 13
77 78 78 78 78 78 78 78 78 78 77 77 77 77 77 77 77 77 76 76 75 74 73 73 72 72 72 71 71 71 70 68 66 65 64 63 61 60 58 56 55 55 54 55 57 54 50 48 48 48 48 46 42 39 34 30 28 24 21 18 18 19 20 19 17 18 20 22 22 21 22 22 22 21 20 19 18 18 17 17 17 17 16 15 14
78 79 79 78 78 78 78 77 76 76 76 76 76 76 77 77 77 76 76 75 74 73 72 72 71 71 70 70 69 68 67 66 65 64 62 61 60 58 57 56 54 53 54 56 53 48 45 43 44 44 44 43 40 36 31 27 25 21 18 17 17 19 19 18 17 17 19 22 23 21 20 20 20 20 20 19 17 17 16 17 17 17 16 16 16
78 78 78 78 77 77 76 75 75 75 75 75 76 76 76 76 76 76 75 74 73 72 71 71 70 69 68 68 67 66 66 65 64 62 60 59 57 57 57 56 53 53 54 52 47 43 41 39 40 41 41 40 37 34 29 25 22 19 16 16 17 18 19 18 16 17 19 22 22 20 19 19 20 21 20 19 18 17 16 16 17 18 18 17 17
77 77 77 77 76 76 75 75 74 74 75 75 75 76 76 76 75 75 74 73 72 71 70 69 69 68 67 66 65 65 64 63 62 60 58 56 55 56 55 54 53 53 50 46 42 39 37 37 39 39 38 36 34 31 28 24 20 17 16 16 17 18 19 18 16 17 19 22 21 18 18 19 21 21 20 19 18 18 17 16 16 17 18 19 18
77 77 76 76 76 75 75 74 74 75 75 75 75 75 75 74 74 73 73 72 71 70 69 69 68 67 66 65 64 63 62 61 60 58 56 54 54 54 53 53 53 51 45 42 38 35 35 37 38 37 36 33 31 29 26 23 18 16 17 17 17 19 19 17 16 17 19 21 19 17 18 20 20 18 16 16 18 19 19 18 17 17 17 19 20
77 77 77 76 76 75 75 75 75 75 75 75 75 74 74 73 73 73 72 72 71 70 69 68 67 66 65 64 63 61 60 59 58 56 54 53 53 53 54 54 52 47 42 39 34 33 36 36 37 36 33 31 29 28 25 22 18 17 19 18 18 19 19 17 16 16 19 19 18 17 19 20 19 16 16 18 21 22 22 20 18 18 17 17 19
78 78 78 77 76 75 75 75 75 75 75 74 74 74 74 73 73 73 73 72 70 69 68 67 67 65 64 62 61 59 58 57 55 53 52 53 53 53 54 52 47 43 39 35 32 35 35 35 37 34 30 29 28 26 24 20 18 19 20 19 19 19 19 18 16 16 18 18 16 17 19 19 18 17 18 21 23 24 23 22 20 18 18 17 18
80 80 79 78 77 76 75 75 75 75 75 75 75 75 75 74 74 73 72 71 70 69 68 67 65 64 62 60 58 57 55 53 52 51 52 53 53 53 51 48 44 40 35 32 33 35 35 36 36 32 28 28 26 25 23 20 19 20 19 19 19 19 20 19 17 16 17 16 15 16 18 19 19 19 21 23 24 25 23 22 22 20 18 17 17
81 80 79 78 77 76 76 77 77 77 77 76 76 76 75 75 74 73 72 71 69 68 67 65 63 62 60 58 56 54 53 52 51 51 52 52 51 49 47 44 41 37 34 32 34 35 35 36 35 29 26 26 26 25 23 20 19 18 19 20 19 19 21 21 18 16 16 15 14 15 17 18 20 22 24 26 26 25 23 22 22 21 20 18 17
81 80 80 80 80 79 79 79 79 78 78 77 76 76 76 76 74 73 71 68 66 63 61 60 59 57 56 55 53 52 52 51 49 50 50 49 48 46 44 41 38 36 34 33 35 36 36 35 32 28 25 26 27 26 24 21 19 19 20 21 20 21 23 23 20 17 16 15 14 15 16 18 20 23 25 27 27 26 23 22 22 22 21 19 17
81 79 78 77 77 77 79 79 78 78 76 74 72 71 71 70 68 64 61 58 56 53 51 51 51 50 49 49 48 49 50 48 47 48 48 47 46 44 41 39 37 37 35 34 36 38 36 34 31 28 27 28 29 28 25 22 21 21 22 23 23 24 25 25 22 18 16 15 14 15 16 18 20 23 26 28 28 26 24 23 23 23 22 20 18
76 72 69 69 71 72 72 71 69 68 66 63 60 58 55 52 51 50 49 48 47 45 44 44 44 43 43 45 45 44 47 47 46 46 45 45 43 41 39 38 38 37 36 36 38 39 36 33 31 29 29 30 31 30 26 23 22 23 24 25 26 27 27 25 22 19 17 15 15 15 16 18 20 24 27 28 28 26 25 25 25 24 24 22 19
74 72 70 71 72 69 64 60 58 57 56 55 53 50 46 45 46 47 47 47 46 45 44 44 43 44 44 44 43 42 44 45 43 42 41 40 39 38 38 38 39 38 37 37 39 39 36 34 32 31 31 32 32 30 26 24 24 25 26 27 27 27 24 23 22 20 17 15 15 16 17 19 21 24 27 28 28 26 25 26 26 25 25 23 19
75 74 73 72 70 66 62 58 56 55 52 50 50 49 49 49 51 51 50 49 47 47 48 47 45 45 45 44 42 40 41 40 39 38 37 37 38 38 38 38 39 39 38 39 41 40 37 35 34 33 33 32 32 29 26 25 26 27 28 27 25 24 21 21 22 20 17 15 15 16 18 19 21 25 28 28 28 27 26 26 26 26 26 23 18
72 71 69 68 67 66 64 62 60 58 54 51 51 52 54 56 56 55 53 51 48 47 47 45 43 43 43 42 40 37 36 35 35 35 35 36 36 37 37 38 39 39 38 40 42 41 37 35 35 35 34 32 31 29 27 26 27 28 28 26 24 22 20 20 22 21 17 15 15 17 18 20 21 24 27 27 27 27 26 27 27 26 25 23 19
68 67 65 64 63 63 63 62 61 60 59 58 58 59 59 57 56 54 52 49 45 41 41 41 41 42 40 38 36 34 32 33 34 35 35 36 36 36 36 38 39 38 39 42 43 41 38 36 36 36 34 32 29 28 27 26 27 27 27 27 25 23 20 20 22 21 18 17 17 18 20 21 22 24 26 26 27 27 26 27 27 25 24 22 18
64 63 62 61 61 61 61 60 60 60 60 60 59 58 57 54 52 50 46 43 40 37 38 40 40 39 36 33 32 32 32 34 36 36 36 36 35 35 36 38 38 39 41 44 44 42 39 38 37 36 33 31 28 28 28 27 27 27 28 27 26 24 21 20 21 20 19 19 19 21 22 24 24 25 26 26 27 27 26 27 26 24 22 19 16
60 59 59 59 59 59 59 59 59 59 58 57 56 56 54 51 50 48 45 41 39 38 38 39 37 33 31 31 31 33 35 37 38 38 37 36 35 35 36 37 38 41 43 44 44 43 41 40 39 36 33 30 28 28 28 28 28 28 28 28 26 25 22 21 20 20 20 21 23 24 24 25 26 25 25 26 27 27 26 27 26 22 21 19 16
59 58 59 58 58 58 58 58 57 57 56 55 55 54 52 50 48 47 45 41 40 41 39 37 33 30 32 33 34 36 37 39 40 39 37 36 35 35 36 37 40 42 43 44 44 43 43 41 39 36 33 31 29 28 29 29 29 29 28 27 27 24 21 21 21 21 23 25 26 26 27 27 27 25 24 26 27 27 27 27 25 22 20 20 19
59 59 58 58 58 57 57 56 56 56 55 54 54 53 52 50 47 45 45 41 39 40 38 36 33 32 35 35 34 37 39 42 41 39 36 35 35 35 37 39 41 42 43 44 44 43 42 41 39 37 35 32 30 29 29 30 30 29 28 27 26 22 20 20 22 24 26 28 28 28 29 29 29 26 25 26 27 27 27 26 25 22 20 20 21
60 59 59 59 58 57 57 56 56 56 55 54 53 51 49 48 46 44 44 41 39 39 36 34 31 29 31 32 35 41 42 43 41 38 35 35 36 37 38 39 40 42 43 43 43 42 41 39 38 37 35 33 31 29 30 30 29 28 27 27 24 21 20 21 23 25 28 29 30 31 31 30 30 27 25 25 26 27 27 26 24 21 20 20 21
60 60 60 60 59 58 57 56 57 56 55 54 48 43 42 44 46 44 44 42 39 38 36 33 26 22 28 35 43 46 43 42 40 37 36 37 38 38 38 39 40 41 42 43 42 40 39 38 37 35 35 34 32 31 32 32 29 27 26 25 22 20 20 22 24 26 28 29 31 32 32 32 31 27 25 25 26 27 27 26 24 21 20 20 22
61 60 60 61 59 58 58 57 57 56 55 53 46 44 44 44 46 44 44 43 39 39 38 36 32 30 36 44 48 46 41 40 39 38 39 39 39 38 38 39 41 42 43 44 43 40 38 37 35 33 33 32 31 31 32 31 27 25 25 24 21 20 21 23 25 27 28 30 32 34 33 33 31 28 26 25 27 28 27 26 24 21 21 22 24
61 60 61 61 59 59 58 57 56 56 55 53 50 50 49 46 47 45 44 44 41 41 40 39 39 41 45 47 46 43 39 39 39 39 40 39 38 39 40 41 42 43 44 44 42 40 37 34 33 32 31 30 29 29 29 27 24 24 23 22 20 20 22 24 26 28 30 32 33 34 34 33 30 28 27 26 28 29 28 27 24 23 24 25 26
61 60 61 60 59 58 58 56 56 55 54 54 52 51 49 47 47 46 45 44 42 42 43 42 42 43 45 45 43 42 40 40 41 40 40 39 39 39 40 41 42 44 44 42 40 37 34 32 32 31 30 29 28 28 26 25 23 22 21 21 21 22 23 25 27 28 30 32 32 33 33 32 29 29 27 26 30 29 27 27 26 25 26 27 27
61 61 60 60 59 58 57 56 54 54 53 52 52 50 48 47 45 44 44 43 42 42 42 43 43 43 43 43 43 42 42 41 41 41 40 40 40 40 41 42 43 43 42 38 35 33 30 29 28 29 29 29 28 27 25 24 22 20 20 21 22 24 26 27 28 29 30 30 31 32 32 31 30 29 27 29 31 29 28 28 26 26 28 29 30
61 60 60 59 59 57 56 54 53 52 51 51 50 49 47 46 44 42 41 42 42 43 43 43 43 43 42 42 43 43 42 42 41 42 42 42 42 42 43 44 43 41 38 35 33 31 29 27 27 28 28 28 27 25 24 23 21 21 20 21 24 26 27 28 29 30 30 30 32 33 32 30 30 29 29 32 32 29 29 28 27 29 31 32 33
60 59 58 58 57 56 54 53 52 50 50 49 49 48 47 46 45 43 42 42 43 43 44 43 42 42 42 41 42 42 42 42 42 43 43 43 44 44 44 43 41 39 36 34 32 31 29 29 29 28 28 26 24 23 23 22 22 22 22 23 26 28 28 29 30 30 31 33 34 33 30 29 30 30 32 35 33 31 30 28 29 33 36 36 36
58 57 56 55 54 54 52 51 50 49 48 47 47 47 47 47 47 47 46 46 47 46 46 46 45 44 44 43 42 43 44 44 45 45 45 45 46 45 43 40 38 37 36 34 33 32 31 30 30 28 27 25 23 22 23 23 24 25 26 28 30 31 31 31 31 32 34 35 33 31 30 30 31 33 35 34 31 31 30 31 35 38 39 38 38
55 54 53 52 51 50 49 48 47 46 45 45 46 46 47 47 48 49 50 50 51 52 51 50 51 50 50 49 48 48 48 48 48 48 48 47 46 43 39 37 36 35 34 33 33 33 32 31 30 28 26 24 22 21 23 25 26 26 28 30 33 33 33 33 34 35 37 36 34 31 32 33 34 35 34 32 31 32 34 37 39 39 39 38 38
52 51 50 49 48 47 46 45 44 44 43 44 44 45 46 47 48 50 51 51 53 54 55 55 55 55 55 55 54 54 53 53 52 50 49 47 43 41 39 37 35 34 33 32 32 33 33 31 30 27 26 24 23 22 23 26 27 28 30 32 34 35 36 36 37 37 38 37 35 33 32 33 33 33 33 33 34 36 38 40 40 39 38 38 38
49 48 47 46 45 44 43 42 42 42 42 42 43 44 45 47 48 50 51 52 53 54 55 56 57 57 58 57 58 58 57 56 54 52 49 45 41 40 39 37 35 34 33 31 31 32 31 30 29 27 25 24 23 23 24 27 29 30 32 34 35 36 37 37 36 34 33 33 32 31 31 31 32 33 34 35 37 39 40 41 40 38 37 37 37
44 43 43 42 41 41 40 39 40 40 41 42 43 44 45 46 48 50 51 52 53 54 54 55 56 57 57 57 57 57 56 54 52 49 47 44 42 41 40 38 37 36 33 31 30 30 29 29 28 26 24 24 23 23 25 28 29 29 31 33 34 35 34 35 35 34 34 34 34 34 34 34 36 37 39 40 42 43 42 41 39 37 37 36 37
40 39 39 39 38 38 37 37 38 39 40 41 42 43 44 45 47 48 50 51 52 53 54 54 55 55 55 55 54 53 52 50 48 46 45 43 42 41 40 40 39 36 34 32 30 28 28 28 27 25 24 23 23 23 25 27 28 29 29 31 32 31 30 31 33 35 36 37 37 38 38 39 41 43 45 45 45 43 41 39 39 38 37 37 38
36 36 36 36 36 36 36 37 37 38 40 41 42 42 42 44 45 47 48 49 50 52 53 53 53 53 53 52 52 51 49 48 46 45 44 44 43 42 42 41 38 35 33 32 31 29 29 28 27 25 24 24 24 24 25 26 28 29 29 28 28 27 28 29 31 33 34 34 35 35 34 36 39 42 44 44 42 40 39 39 40 39 38 38 39
34 34 35 35 35 35 36 36 37 38 39 40 41 41 42 43 44 45 46 47 49 50 51 51 51 51 51 50 49 48 47 46 45 44 44 44 43 43 41 39 36 34 33 32 32 31 30 28 27 25 24 25 25 24 25 26 27 28 28 27 26 26 28 30 31 32 33 32 31 30 30 32 35 38 40 40 39 38 39 40 40 39 39 40 40
33 34 34 34 34 35 36 36 37 38 39 39 40 40 41 42 43 44 45 46 47 48 48 49 49 49 48 48 47 46 45 44 44 44 44 44 43 41 40 37 35 33 33 32 31 31 29 28 27 26 25 26 26 25 25 26 27 27 28 28 27 27 29 31 32 32 32 31 30 29 29 31 34 36 37 38 38 38 40 41 40 40 40 40 40
33 33 33 34 35 36 37 37 37 38 39 39 40 40 41 41 42 43 43 44 45 46 46 46 46 46 45 45 44 44 44 43 43 42 42 41 40 39 37 36 34 33 32 32 31 30 29 28 27 27 27 27 27 26 26 26 26 26 28 30 29 28 30 31 32 32 31 30 29 29 30 32 34 36 38 38 39 40 41 41 41 41 40 40 41
33 33 33 34 35 36 37 37 38 38 39 39 39 40 40 40 41 41 41 42 43 43 44 44 43 43 43 43 43 42 42 41 41 40 40 39 38 37 36 34 32 31 31 31 31 30 29 28 28 28 28 28 27 27 26 26 27 27 29 32 31 30 31 32 33 32 32 31 30 30 31 33 36 38 39 40 41 42 42 42 41 41 41 41 42
32 33 33 34 35 36 37 38 38 38 39 39 39 39 39 39 39 39 40 40 41 41 42 42 42 41 41 42 42 41 40 39 39 38 37 36 35 35 34 32 30 29 29 29 30 29 28 27 28 28 28 28 28 28 27 28 29 31 32 33 33 33 33 34 34 33 33 32 31 31 33 35 38 40 41 42 42 42 42 42 41 41 43 43 43
Wind_Direction
282 283 285 286 288 289 290 290 291 292 294 295 297 297 297 297 296 296 297 297 298 298 299 299 300 300 300 301 301 302 303 304 305 306 307 308 308 309 310 310 311 311 311 311 311 311 311 312 313 314 315 316 317 318 318 318 318 319 319 319 319 319 320 322 323 322 322 321 321 320 318 316 315 314 313 310 308 306 305 305 304 303 301 297 295
281 283 284 286 287 288 288 289 290 292 294 295 296 297 297 296 296 296 297 297 298 298 299 299 300 300 300 301 301 302 303 304 305 306 306 307 308 309 310 311 311 311 311 310 310 311 311 312 313 314 316 316 317 317 317 317 317 318 318 318 318 319 321 322 322 322 321 320 320 320 319 317 316 314 312 310 308 307 308 308 307 305 303 298 293
281 282 284 285 286 287 287 288 290 292 294 295 296 296 296 296 296 297 297 297 298 298 299 299 299 300 300 301 301 302 303 304 305 305 306 307 308 309 310 311 311 310 310 310 311 311 312 313 314 315 316 316 316 317 316 316 317 317 317 317 318 319 322 322 320 320 320 320 320 321 320 318 316 314 311 310 310 312 314 314 312 309 305 299 293
282 283 285 286 287 287 287 288 290 292 293 295 295 295 295 296 296 297 297 297 298 298 298 299 299 300 300 300 301 302 303 304 305 306 307 308 309 310 310 310 310 310 310 311 311 312 313 314 316 316 316 316 316 316 315 315 316 316 316 316 318 320 322 320 318 318 319 320 322 323 321 318 315 313 312 313 314 317 320 320 318 314 308 302 295
283 284 285 286 287 288 289 289 290 292 293 294 294 295 295 296 296 296 296 297 297 298 298 298 299 299 300 300 301 301 303 304 305 306 307 308 308 309 310 310 310 310 311 311 312 314 315 316 316 315 315 315 315 315 314 314 315 316 315 315 317 320 320 317 316 318 320 322 325 324 321 318 315 314 314 314 317 320 323 324 324 321 315 306 298
282 284 285 286 287 288 289 289 291 292 293 293 294 294 295 296 296 296 296 297 297 298 298 298 299 299 300 300 301 302 303 304 305 306 306 307 308 309 309 310 310 311 312 313 314 315 315 315 315 315 315 314 314 314 314 314 315 315 314 315 317 319 317 314 315 318 322 325 326 324 321 318 315 313 312 311 315 319 323 326 325 323 320 312 303
282 283 284 286 287 288 288 289 291 292 292 292 293 294 295 295 295 295 295 296 297 298 298 299 299 300 300 301 301 302 303 304 305 305 306 307 307 308 309 310 310 312 313 314 315 315 315 315 315 314 313 313 313 314 313 313 314 314 313 314 315 316 314 313 316 320 325 327 326 323 321 318 315 311 307 307 309 315 322 325 325 323 321 315 306
280 282 284 285 286 287 288 289 290 291 291 292 293 293 294 294 294 294 295 296 297 298 298 299 300 300 300 301 301 302 303 304 304 305 305 306 307 308 310 310 311 312 313 314 315 316 316 317 315 313 312 313 314 315 314 313 314 313 312 313 313 313 311 313 317 322 327 327 324 322 322 320 317 313 308 305 303 305 312 320 324 324 323 318 309
279 281 283 284 284 286 287 288 288 289 290 291 292 293 293 293 293 293 295 296 297 297 298 299 299 300 300 301 301 302 302 303 304 304 305 306 307 308 310 311 312 312 313 314 316 317 317 317 314 313 313 313 314 315 314 312 312 311 311 311 311 310 310 314 318 324 328 326 324 323 322 321 319 316 312 309 304 300 301 306 315 320 321 320 315
279 280 281 282 283 284 286 287 287 288 290 291 292 292 292 292 292 293 294 295 296 297 297 298 298 299 300 300 301 301 302 303 303 304 305 306 307 309 310 311 311 312 313 314 316 317 317 316 314 313 313 314 315 316 314 312 311 310 309 308 308 309 311 315 320 325 328 328 326 322 319 319 318 316 312 309 306 302 299 296 300 308 312 314 313
279 279 280 281 283 284 285 286 287 288 289 290 291 291 291 291 292 292 293 294 295 295 296 297 298 299 299 300 300 301 302 303 303 304 305 306 307 308 310 310 310 311 313 314 316 317 316 315 315 314 314 314 317 318 315 311 309 308 306 306 307 308 312 318 322 325 328 330 327 321 318 318 318 317 314 310 305 301 299 294 292 295 298 302 303
278 279 280 281 282 283 284 285 286 287 288 289 289 289 290 290 290 291 292 292 293 294 295 297 297 298 298 299 300 301 302 302 304 304 305 306 307 308 308 309 310 311 313 315 316 316 316 316 316 315 315 315 317 318 316 310 307 305 304 305 305 307 315 320 321 324 328 331 329 323 320 322 322 321 318 315 310 303 297 293 291 289 289 289 291
278 279 281 282 282 283 284 285 286 287 287 288 288 288 288 289 289 290 290 292 293 294 295 296 297 297 298 299 300 301 301 302 303 304 305 306 306 307 307 308 310 311 314 315 316 316 317 317 318 317 316 315 317 318 315 309 304 302 303 303 302 306 317 321 320 322 327 330 329 325 324 326 326 323 320 317 315 311 302 293 287 286 285 283 283
278 279 280 281 282 283 284 285 286 286 286 286 287 287 287 287 288 289 290 291 293 294 295 296 296 297 298 298 299 300 302 302 303 304 305 305 305 306 307 308 310 312 314 315 316 317 318 320 321 319 316 315 316 317 314 308 301 298 298 299 300 306 317 321 319 318 324 329 328 326 326 326 325 324 321 315 310 309 308 300 289 282 280 280 280
277 278 279 280 281 282 283 284 285 285 285 285 285 285 286 286 288 289 290 292 293 294 295 295 296 296 297 298 299 300 301 302 303 303 304 304 305 305 307 309 311 313 314 315 317 318 320 323 323 320 316 314 315 317 314 307 299 293 291 294 300 306 315 319 316 314 320 327 327 326 328 328 328 328 325 320 313 308 305 302 296 287 279 276 276
277 278 278 279 280 281 282 283 283 283 283 284 284 285 285 287 288 290 291 292 293 294 294 295 295 296 297 298 299 300 301 301 302 302 303 303 304 305 306 309 312 313 314 315 317 319 321 325 325 321 317 314 314 317 314 308 299 289 287 293 302 306 313 317 313 310 317 325 325 326 329 332 334 332 334 335 332 326 319 308 300 294 286 278 274
277 277 278 278 279 280 281 282 282 282 283 283 284 285 286 287 288 290 290 291 292 293 294 295 295 296 296 297 299 299 299 300 301 301 301 302 303 303 305 308 311 312 314 317 319 320 322 326 327 323 317 313 314 317 316 310 299 289 289 294 302 307 311 313 309 305 313 321 322 326 329 331 333 330 332 335 333 331 329 323 310 298 291 285 277
277 277 278 279 279 280 281 281 281 282 282 283 284 285 286 287 288 289 289 290 291 292 293 294 295 295 296 297 298 298 298 298 299 299 300 300 301 302 304 308 310 312 315 318 320 322 324 328 330 324 317 313 313 318 317 313 303 295 294 295 302 310 312 310 303 300 308 315 319 327 329 327 328 325 324 326 327 326 326 327 322 309 296 288 282
276 277 278 279 279 280 280 280 280 281 282 282 283 284 285 286 286 287 288 289 291 292 293 293 294 294 295 296 296 296 296 297 297 297 297 298 299 301 304 306 308 312 316 318 321 324 325 330 333 325 316 311 312 318 318 315 309 301 298 297 303 311 314 308 296 293 301 308 317 330 331 326 323 320 320 323 328 327 324 325 325 318 304 291 284
276 276 277 278 278 279 279 279 280 280 281 282 283 283 284 285 285 286 288 289 290 291 291 292 292 293 294 294 294 295 295 296 295 295 295 296 298 301 304 306 309 313 315 318 323 325 325 330 334 326 316 311 312 319 319 318 316 309 304 303 305 308 313 307 292 287 293 301 315 330 334 330 324 319 319 323 327 328 324 324 327 325 313 296 285
274 275 276 276 277 278 279 279 280 280 281 282 283 284 284 284 285 286 287 288 289 290 291 291 291 291 292 292 293 293 294 293 293 293 294 295 298 301 303 306 309 313 314 318 323 325 325 329 334 327 317 313 315 320 319 318 318 314 308 305 303 302 306 306 293 281 286 296 312 329 333 332 327 324 323 323 326 327 325 324 327 330 324 305 288
273 274 276 277 278 279 279 279 280 280 281 282 283 285 286 285 285 285 286 288 289 291 291 291 290 290 291 292 293 293 293 292 292 293 294 296 299 302 304 306 309 312 314 319 321 323 324 327 332 327 319 316 317 319 316 314 315 314 310 306 302 300 302 304 292 277 282 295 311 328 332 330 326 326 327 324 324 325 325 324 325 329 331 317 296
273 273 275 277 279 279 280 280 280 280 281 283 285 287 288 287 286 286 288 290 291 293 292 292 292 293 293 293 294 294 293 292 292 294 296 299 302 303 305 307 309 312 315 317 320 322 322 324 329 327 319 316 316 317 314 312 314 316 313 307 301 300 300 299 288 273 278 294 310 326 330 326 322 323 326 325 323 323 324 324 324 325 330 326 307
270 271 272 274 276 277 279 280 280 281 282 283 284 285 285 285 287 289 290 291 291 291 291 291 292 293 294 294 294 293 291 291 293 296 299 303 305 305 305 307 309 312 314 316 319 320 320 321 325 324 318 316 317 316 314 314 316 316 312 307 301 299 297 293 285 269 273 294 308 319 322 319 316 318 324 325 323 321 322 323 323 323 327 327 312
270 271 271 272 273 273 275 276 276 278 279 281 280 279 280 283 286 289 290 290 289 289 290 290 290 292 292 293 293 291 290 291 295 298 303 305 305 304 304 307 309 311 312 314 318 319 318 319 321 321 318 317 318 316 315 316 315 313 310 308 302 298 292 289 282 266 269 291 304 312 314 312 310 313 320 324 322 318 319 321 323 324 326 327 314
270 271 271 271 271 271 270 271 272 274 275 276 277 277 279 282 285 287 288 288 288 289 290 289 289 290 291 291 290 289 290 293 296 300 303 304 302 302 303 306 307 308 310 313 316 318 317 318 319 319 317 318 318 314 313 314 313 311 309 309 306 301 290 285 281 266 267 288 300 307 308 306 304 309 317 322 320 315 316 319 323 325 327 328 317
270 270 271 271 270 270 269 269 269 270 272 274 276 278 281 282 283 283 285 286 288 289 288 287 288 289 290 288 287 288 292 295 299 301 302 302 300 300 302 303 304 305 307 311 315 316 315 315 316 315 315 315 314 310 309 310 310 309 309 309 308 304 289 281 279 265 266 285 295 302 305 305 305 309 317 320 317 312 313 318 321 324 328 330 321
270 270 270 269 269 269 269 268 269 270 272 274 277 279 281 283 282 281 283 285 287 288 287 287 287 288 287 284 285 290 295 297 299 300 300 299 298 299 300 302 302 303 306 310 313 314 313 312 312 312 311 310 309 306 305 306 308 307 307 308 308 306 291 279 276 262 265 282 289 296 301 305 308 313 317 317 313 309 311 316 319 321 327 332 325
269 269 268 268 269 269 270 270 271 272 274 276 277 280 281 282 281 281 282 282 284 285 285 288 287 285 284 284 288 293 296 298 298 298 297 297 298 298 299 300 301 303 306 309 310 310 310 309 309 308 307 306 305 302 300 300 301 305 305 306 309 306 290 277 270 258 263 276 284 292 298 304 310 315 315 314 310 306 308 313 316 318 323 329 328
267 267 268 268 269 270 271 272 273 273 274 276 277 279 280 280 279 279 280 279 280 281 282 286 286 284 285 286 289 292 295 296 295 295 294 294 296 296 296 298 301 302 305 307 308 308 309 308 307 304 302 301 299 298 295 293 296 302 304 305 309 304 286 273 263 255 262 273 282 290 297 303 310 312 310 309 307 304 306 309 312 316 320 326 329
266 267 267 268 269 269 271 272 273 273 274 275 276 278 279 278 277 275 276 275 276 279 279 282 286 288 288 284 286 291 294 294 292 291 290 291 293 293 294 297 300 302 304 306 308 308 309 308 305 302 299 297 297 294 291 290 294 301 302 305 306 296 278 266 257 256 264 274 281 289 296 302 308 307 304 305 303 302 304 307 310 314 320 325 329
265 267 267 268 268 269 271 271 272 273 274 275 277 279 278 277 274 271 272 271 271 274 275 281 288 289 281 277 283 290 292 291 289 288 287 289 290 291 293 297 300 303 305 306 307 308 308 307 305 302 298 296 294 291 289 289 294 300 301 303 300 287 270 258 255 259 267 275 282 290 294 300 306 303 299 301 300 300 303 306 308 313 319 323 325
266 267 268 268 269 270 270 271 272 274 275 276 277 276 274 273 273 269 267 267 267 266 267 273 278 272 268 273 283 286 286 287 287 284 283 286 288 291 294 298 302 304 305 305 305 306 308 308 306 302 297 293 291 289 287 289 295 299 299 298 293 280 265 256 257 261 268 276 285 291 293 300 304 297 293 296 298 301 303 303 306 312 317 318 320
266 267 268 269 269 270 270 271 272 273 274 275 273 270 269 269 270 268 265 264 262 260 260 263 262 260 266 275 281 281 280 283 283 282 283 286 290 294 298 302 304 305 304 305 305 307 309 309 306 302 297 294 292 288 286 289 295 298 297 294 284 271 263 260 260 264 271 279 286 290 293 300 300 292 288 290 298 303 302 301 304 310 313 313 315
267 268 268 269 269 270 271 271 272 272 273 273 271 270 269 267 267 266 263 263 260 257 258 260 261 264 267 273 277 276 276 278 279 281 284 288 294 298 301 303 304 304 304 305 305 307 309 308 306 303 299 297 293 288 287 290 295 296 293 287 276 268 264 263 265 269 275 281 286 288 294 300 296 288 284 286 299 304 299 299 302 307 311 311 312
266 267 267 268 269 270 270 271 271 272 272 272 271 270 269 267 266 265 263 263 260 257 260 263 266 268 268 268 270 271 273 275 277 280 285 290 295 299 301 302 302 303 303 303 304 306 307 307 305 303 300 297 293 289 288 290 292 291 285 276 270 265 263 265 270 275 279 283 286 288 294 300 294 285 281 288 301 301 296 295 297 304 309 310 311
266 266 267 268 269 269 270 270 271 271 271 270 270 269 268 266 264 263 262 261 259 258 261 265 266 266 265 265 265 266 270 272 276 280 285 291 296 299 300 299 300 300 301 302 303 305 307 307 306 305 302 297 293 290 290 291 291 287 279 271 263 260 264 271 276 280 284 284 284 287 295 297 290 280 277 292 302 298 293 292 294 303 308 309 309
265 266 266 267 268 268 269 269 269 269 269 268 268 267 265 263 261 258 258 258 258 259 261 262 262 261 261 262 262 264 269 272 277 282 287 292 296 298 298 297 297 297 299 300 300 301 303 305 307 307 303 297 292 290 290 291 290 286 280 271 262 263 271 279 283 285 284 281 282 289 295 293 284 275 278 294 300 294 289 289 295 305 307 307 307
265 265 266 266 267 268 268 268 268 267 267 267 266 265 263 261 258 254 253 254 255 256 257 257 257 259 260 261 263 265 269 273 277 283 287 291 295 297 296 294 294 295 296 297 296 297 299 301 304 305 302 296 290 287 287 289 287 283 279 273 270 273 279 284 286 284 281 281 287 292 293 289 280 275 283 294 293 286 284 287 297 303 303 303 304
264 264 265 266 266 267 267 266 266 266 265 265 264 263 261 259 257 254 251 251 252 252 252 253 254 258 260 262 264 267 270 274 279 284 287 291 294 294 292 291 292 294 295 294 293 295 297 299 301 302 299 293 287 283 282 283 283 281 280 278 277 280 283 285 285 284 283 285 288 289 286 282 278 279 287 291 285 281 283 289 296 299 299 300 301
263 263 264 265 265 266 266 266 265 265 264 263 262 261 260 259 257 256 254 252 252 252 252 254 255 258 260 262 264 267 271 275 280 283 286 290 291 290 289 290 291 293 293 293 292 293 295 296 298 299 296 291 285 279 277 277 278 277 276 276 277 279 282 283 283 284 285 285 284 283 279 277 278 281 284 283 280 281 286 291 295 296 297 298 299
262 262 263 264 264 264 265 265 264 263 262 261 261 260 259 259 258 257 257 255 254 254 254 256 258 259 261 264 266 269 272 276 280 282 285 287 287 286 287 289 290 292 292 292 291 291 292 293 294 295 293 289 283 278 275 274 274 274 272 272 273 276 280 282 283 284 284 285 284 282 280 279 280 278 277 277 278 282 287 291 294 295 296 298 300
262 263 263 263 263 263 263 263 263 262 261 260 259 259 258 258 258 258 258 258 257 257 257 258 260 261 263 265 268 270 273 276 279 281 283 283 283 284 286 286 288 290 290 290 289 289 290 291 292 291 289 286 283 280 276 274 273 273 271 270 271 274 278 280 280 278 278 279 278 277 277 278 277 274 274 275 278 282 287 289 290 293 296 297 299
262 263 263 263 262 262 262 262 261 260 260 259 258 258 257 257 257 257 258 258 259 259 260 261 262 263 265 267 269 272 274 276 278 279 279 279 280 282 282 283 287 288 287 288 288 288 288 289 290 288 286 285 283 280 277 274 273 272 270 269 272 274 277 277 274 269 267 267 267 268 269 269 270 271 273 275 278 282 286 286 288 293 295 295 297
261 262 262 262 261 261 261 260 259 258 258 258 257 257 257 258 258 258 258 259 259 260 261 262 263 265 266 268 270 272 274 276 277 277 277 277 278 279 280 283 286 286 285 285 286 285 285 287 287 286 284 282 279 277 275 273 271 270 270 270 274 276 277 276 273 271 270 268 266 267 268 268 268 269 271 274 278 281 283 284 289 293 293 293 296
260 261 261 261 260 259 259 258 257 257 257 257 257 258 258 258 259 259 260 260 261 262 262 263 264 266 267 269 270 272 274 274 275 275 275 276 277 279 281 283 285 284 283 281 280 280 281 282 283 282 280 277 274 273 273 273 271 270 269 270 273 276 278 279 278 278 277 275 272 272 273 272 270 270 272 275 277 279 282 285 290 292 292 293 296
259 259 259 259 259 258 258 257 256 256 256 257 258 258 259 259 260 260 261 261 262 262 263 264 265 266 267 268 270 272 273 273 274 274 274 276 278 280 281 282 282 281 281 279 277 276 276 277 278 277 274 273 272 272 273 272 271 270 270 271 274 278 281 282 283 283 282 280 279 280 279 276 273 272 272 273 275 278 282 286 289 291 292 293 296
255 255 255 257 257 258 257 257 256 256 256 257 258 258 258 259 260 260 261 262 263 264 264 265 265 266 267 268 270 271 272 272 273 274 275 276 278 279 280 280 280 279 278 277 274 273 272 272 272 271 269 269 271 273 273 272 271 272 273 273 274 279 282 283 284 284 283 283 282 283 282 278 275 273 272 273 276 280 283 286 288 290 291 292 295
252 253 253 254 255 256 256 256 256 257 257 258 258 258 259 259 260 261 262 263 264 265 266 267 268 268 269 269 270 270 271 272 273 274 275 276 277 277 277 277 277 277 275 272 270 269 268 268 268 268 268 269 271 272 272 271 271 272 272 274 276 279 281 282 282 282 282 282 282 283 281 278 276 274 274 276 278 281 283 285 287 289 290 292 295
252 253 253 253 253 254 255 256 256 257 258 259 259 260 261 261 262 263 264 265 265 266 268 269 270 270 271 271 270 270 271 272 272 273 273 274 275 274 274 274 274 273 270 268 266 266 266 266 267 269 270 271 272 272 270 268 268 269 271 276 280 282 282 282 282 281 280 280 281 282 281 278 276 275 276 277 279 281 282 284 287 288 289 292 294
254 253 253 253 253 254 255 256 257 258 259 261 262 263 263 264 264 265 265 266 267 268 269 270 270 271 271 270 270 270 271 271 271 272 272 272 272 271 271 271 270 269 268 266 265 265 265 266 268 270 271 272 273 272 270 267 268 270 274 277 279 281 281 281 281 280 279 279 281 281 279 277 276 276 277 278 279 281 283 285 288 289 291 292 293
Height
10885 10885 10885 10886 10885 10885 10884 10883 10883 10883 10884 10884 10883 10882 10882 10881 10879 10878 10877 10876 10874 10873 10871 10869 10867 10865 10863 10863 10862 10862 10861 10859 10858 10857 10855 10854 10852 10851 10849 10847 10844 10840 10838 10835 10833 10830 10827 10824 10822 10821 10819 10817 10815 10813 10810 10808 10806 10804 10802 10800 10798 10796 10793 10792 10790 10789 10787 10785 10783 10781 10778 10777 10775 10774 10772 10771 10769 10768 10766 10765 10765 10764 10764 10764 10765
10882 10882 10882 10883 10883 10882 10880 10879 10879 10880 10880 10880 10879 10878 10877 10875 10874 10873 10872 10871 10870 10869 10867 10865 10863 10861 10859 10858 10857 10857 10856 10855 10854 10852 10851 10850 10848 10847 10845 10843 10839 10836 10834 10831 10829 10826 10823 10820 10818 10817 10815 10813 10811 10809 10806 10804 10802 10800 10798 10797 10795 10793 10790 10789 10787 10786 10785 10783 10780 10778 10776 10774 10773 10772 10770 10769 10767 10766 10765 10764 10763 10762 10762 10762 10763
10879 10879 10880 10880 10880 10879 10878 10877 10876 10876 10877 10876 10875 10874 10872 10870 10869 10868 10868 10867 10865 10864 10863 10862 10860 10858 10856 10854 10852 10851 10851 10850 10849 10848 10846 10845 10844 10843 10842 10839 10835 10832 10830 10827 10825 10822 10819 10816 10814 10812 10811 10810 10808 10805 10803 10800 10799 10797 10795 10793 10792 10790 10787 10786 10784 10783 10782 10780 10777 10775 10773 10772 10771 10770 10769 10767 10766 10765 10763 10762 10761 10761 10761 10761 10761
10874 10874 10875 10876 10876 10875 10875 10874 10873 10873 10873 10872 10871 10869 10867 10865 10864 10863 10862 10862 10861 10860 10859 10858 10856 10854 10852 10850 10848 10847 10846 10846 10844 10843 10842 10841 10840 10839 10838 10835 10832 10828 10826 10823 10821 10818 10815 10812 10810 10808 10807 10805 10804 10802 10799 10797 10795 10794 10792 10790 10789 10787 10785 10783 10782 10780 10779 10777 10775 10773 10771 10770 10769 10768 10767 10766 10765 10763 10762 10761 10760 10760 10760 10760 10760
10868 10869 10870 10870 10871 10871 10870 10870 10869 10870 10869 10868 10866 10864 10862 10861 10860 10858 10857 10857 10856 10855 10854 10854 10852 10851 10849 10847 10844 10843 10842 10841 10840 10838 10837 10836 10836 10836 10834 10831 10827 10825 10822 10820 10817 10815 10812 10809 10806 10804 10802 10801 10800 10798 10795 10793 10792 10790 10789 10787 10786 10784 10783 10781 10779 10778 10776 10774 10772 10771 10769 10768 10767 10766 10765 10764 10763 10762 10761 10760 10759 10759 10759 10759 10759
10864 10864 10864 10865 10865 10866 10866 10866 10866 10866 10864 10863 10861 10860 10859 10857 10855 10853 10852 10852 10851 10850 10849 10849 10848 10846 10844 10842 10840 10838 10838 10837 10835 10834 10833 10832 10831 10831 10830 10827 10823 10821 10818 10816 10814 10811 10808 10805 10802 10799 10798 10797 10796 10794 10791 10789 10789 10787 10786 10784 10783 10781 10780 10779 10777 10775 10773 10772 10770 10769 10768 10766 10765 10764 10764 10763 10762 10762 10761 10760 10759 10758 10758 10758 10758
10858 10859 10859 10860 10860 10860 10860 10861 10862 10861 10859 10858 10857 10856 10855 10853 10851 10849 10848 10847 10846 10846 10845 10844 10843 10841 10839 10837 10835 10834 10833 10832 10831 10830 10829 10828 10827 10827 10826 10823 10820 10817 10815 10813 10810 10808 10804 10801 10798 10795 10794 10793 10793 10791 10787 10786 10786 10784 10783 10781 10780 10779 10778 10777 10775 10773 10771 10770 10769 10767 10766 10765 10764 10763 10763 10762 10761 10761 10760 10759 10758 10758 10757 10757 10757
10852 10853 10854 10855 10855 10855 10855 10856 10857 10856 10854 10853 10853 10852 10850 10848 10846 10844 10843 10842 10842 10841 10841 10839 10838 10837 10835 10833 10831 10829 10828 10828 10827 10825 10824 10823 10823 10823 10823 10819 10816 10814 10812 10810 10807 10804 10800 10797 10793 10791 10789 10789 10789 10788 10784 10782 10782 10781 10780 10778 10777 10777 10776 10775 10773 10772 10770 10768 10767 10766 10765 10764 10763 10762 10761 10761 10760 10760 10759 10758 10758 10757 10757 10756 10756
10847 10848 10849 10849 10849 10849 10850 10851 10851 10851 10849 10848 10848 10847 10846 10844 10841 10840 10838 10837 10837 10837 10836 10835 10834 10832 10830 10828 10826 10824 10823 10824 10823 10821 10819 10819 10819 10819 10819 10816 10813 10811 10809 10806 10804 10801 10797 10793 10789 10786 10785 10784 10785 10786 10782 10779 10779 10778 10777 10776 10775 10775 10774 10773 10771 10770 10768 10767 10765 10764 10763 10762 10762 10761 10760 10759 10759 10758 10758 10758 10757 10756 10756 10755 10755
10843 10843 10843 10844 10844 10844 10844 10845 10846 10846 10844 10843 10843 10842 10840 10839 10837 10835 10834 10833 10832 10832 10832 10831 10830 10828 10826 10823 10821 10820 10819 10819 10818 10816 10815 10814 10814 10815 10815 10813 10809 10807 10806 10803 10801 10798 10794 10790 10786 10783 10781 10780 10781 10782 10779 10776 10775 10775 10774 10773 10773 10773 10772 10771 10770 10768 10767 10765 10764 10763 10762 10761 10760 10759 10758 10757 10757 10757 10756 10756 10756 10755 10755 10755 10754
10839 10838 10838 10839 10839 10840 10840 10840 10841 10841 10839 10838 10837 10836 10835 10834 10833 10831 10830 10829 10828 10828 10827 10826 10825 10823 10821 10819 10817 10815 10814 10814 10813 10812 10811 10810 10809 10810 10811 10810 10806 10804 10802 10800 10797 10795 10791 10787 10783 10779 10777 10776 10777 10778 10777 10774 10772 10772 10771 10771 10771 10771 10770 10769 10768 10767 10766 10764 10763 10761 10760 10759 10758 10758 10757 10756 10755 10755 10755 10754 10754 10754 10754 10754 10754
10833 10832 10833 10834 10834 10834 10835 10835 10836 10835 10834 10833 10832 10830 10829 10828 10827 10827 10826 10825 10825 10824 10823 10822 10821 10819 10817 10815 10812 10810 10809 10809 10808 10808 10807 10805 10804 10805 10806 10806 10804 10801 10799 10797 10794 10791 10787 10784 10780 10776 10773 10772 10774 10775 10774 10772 10770 10770 10769 10769 10769 10769 10769 10768 10766 10766 10764 10763 10762 10760 10759 10758 10757 10756 10755 10754 10754 10753 10753 10753 10752 10752 10752 10752 10752
10825 10825 10827 10827 10828 10829 10829 10830 10830 10830 10829 10828 10826 10825 10824 10822 10822 10821 10821 10821 10821 10820 10820 10818 10816 10814 10812 10810 10808 10806 10805 10804 10804 10803 10802 10801 10800 10799 10800 10802 10801 10798 10796 10793 10790 10787 10784 10781 10777 10773 10770 10769 10770 10771 10772 10770 10768 10767 10768 10768 10768 10767 10767 10766 10765 10764 10763 10762 10760 10759 10758 10757 10756 10755 10754 10753 10752 10751 10751 10751 10751 10751 10751 10751 10751
10820 10820 10820 10821 10821 10823 10824 10824 10825 10825 10823 10822 10820 10819 10818 10817 10816 10816 10816 10816 10816 10816 10815 10814 10812 10810 10808 10807 10805 10803 10801 10799 10799 10799 10798 10797 10796 10795 10795 10797 10797 10795 10793 10790 10787 10784 10781 10778 10774 10771 10767 10765 10766 10768 10769 10768 10767 10766 10766 10766 10766 10765 10765 10764 10763 10762 10762 10761 10759 10758 10757 10756 10755 10754 10753 10752 10751 10750 10749 10749 10749 10749 10749 10749 10749
10815 10815 10815 10815 10816 10817 10819 10819 10819 10819 10817 10815 10814 10813 10812 10811 10811 10811 10810 10811 10811 10811 10810 10808 10807 10805 10804 10803 10801 10799 10797 10795 10794 10794 10793 10793 10792 10791 10791 10792 10793 10792 10789 10787 10784 10782 10779 10775 10772 10768 10765 10763 10763 10765 10766 10766 10765 10764 10764 10764 10764 10763 10763 10762 10761 10761 10760 10759 10758 10757 10756 10755 10754 10753 10752 10751 10750 10749 10748 10747 10747 10747 10747 10747 10747
10809 10809 10810 10811 10812 10813 10814 10813 10813 10812 10811 10809 10808 10807 10807 10806 10806 10806 10805 10805 10805 10805 10804 10803 10801 10800 10800 10799 10797 10796 10793 10791 10790 10790 10789 10788 10788 10787 10786 10787 10789 10787 10785 10784 10782 10779 10776 10773 10770 10766 10762 10760 10760 10762 10763 10764 10763 10762 10762 10762 10762 10761 10761 10760 10759 10759 10758 10757 10756 10755 10755 10754 10752 10752 10751 10750 10749 10748 10747 10746 10745 10745 10745 10745 10745
10802 10803 10805 10806 10807 10808 10808 10808 10807 10805 10804 10802 10802 10802 10802 10802 10802 10801 10800 10800 10800 10799 10798 10797 10795 10795 10795 10794 10793 10792 10790 10788 10786 10785 10784 10784 10783 10783 10782 10783 10784 10783 10781 10780 10778 10777 10774 10772 10768 10764 10760 10758 10758 10760 10761 10762 10761 10761 10760 10761 10760 10760 10759 10758 10758 10757 10756 10756 10755 10754 10753 10752 10751 10750 10750 10749 10748 10747 10746 10745 10744 10743 10743 10743 10743
10795 10796 10799 10800 10802 10803 10803 10802 10800 10799 10797 10796 10796 10797 10797 10797 10797 10796 10795 10794 10794 10794 10793 10791 10790 10790 10790 10790 10789 10788 10786 10784 10783 10781 10780 10779 10779 10778 10778 10778 10779 10779 10778 10776 10775 10773 10772 10770 10767 10762 10758 10756 10756 10758 10759 10759 10759 10759 10759 10759 10758 10758 10757 10756 10755 10755 10754 10754 10753 10752 10751 10750 10750 10749 10748 10748 10747 10746 10745 10744 10743 10742 10741 10741 10741
10789 10790 10792 10794 10795 10796 10795 10794 10793 10792 10791 10791 10791 10792 10793 10792 10792 10791 10790 10789 10789 10789 10787 10786 10785 10784 10785 10785 10784 10783 10782 10781 10779 10777 10776 10776 10774 10774 10774 10774 10775 10776 10775 10773 10771 10770 10769 10767 10765 10761 10757 10754 10754 10756 10757 10757 10758 10757 10757 10757 10756 10755 10755 10754 10753 10753 10752 10752 10751 10750 10750 10749 10748 10748 10747 10746 10745 10744 10743 10742 10742 10740 10739 10739 10738
10783 10784 10786 10787 10788 10788 10788 10788 10787 10786 10786 10786 10786 10787 10787 10787 10786 10786 10785 10785 10784 10783 10781 10780 10780 10779 10779 10780 10780 10778 10777 10777 10776 10774 10773 10772 10771 10770 10770 10770 10770 10771 10771 10770 10768 10767 10766 10765 10763 10760 10756 10753 10753 10755 10755 10755 10756 10756 10756 10755 10754 10753 10752 10751 10751 10750 10750 10750 10749 10748 10748 10747 10747 10746 10745 10744 10743 10742 10741 10741 10740 10739 10738 10737 10736
10777 10779 10780 10780 10782 10783 10782 10781 10780 10779 10780 10780 10780 10780 10781 10781 10782 10781 10780 10779 10778 10777 10776 10775 10775 10775 10775 10775 10775 10774 10773 10773 10771 10770 10769 10769 10768 10766 10766 10766 10766 10766 10767 10767 10766 10764 10763 10763 10762 10759 10755 10752 10751 10752 10753 10753 10754 10754 10753 10752 10752 10751 10750 10749 10749 10748 10748 10748 10747 10747 10746 10746 10745 10744 10743 10742 10741 10740 10739 10739 10738 10737 10736 10735 10734
10773 10775 10776 10776 10777 10777 10775 10774 10773 10773 10773 10774 10775 10775 10776 10776 10776 10775 10775 10774 10773 10772 10771 10771 10770 10771 10772 10771 10771 10771 10769 10768 10767 10767 10766 10765 10765 10763 10762 10762 10762 10762 10763 10763 10763 10762 10761 10760 10760 10758 10754 10751 10749 10750 10751 10752 10752 10752 10751 10750 10749 10748 10747 10747 10746 10746 10745 10745 10745 10745 10745 10744 10744 10743 10742 10740 10739 10738 10737 10736 10736 10735 10734 10733 10732
10770 10771 10772 10771 10771 10770 10769 10768 10768 10767 10767 10769 10770 10771 10771 10771 10770 10769 10769 10769 10768 10768 10767 10767 10767 10767 10768 10767 10767 10767 10765 10764 10764 10763 10763 10762 10762 10760 10759 10759 10759 10759 10759 10759 10759 10759 10758 10758 10758 10756 10753 10750 10749 10749 10750 10751 10750 10749 10748 10747 10746 10746 10745 10744 10744 10744 10743 10743 10743 10743 10743 10743 10742 10741 10740 10738 10737 10736 10735 10734 10733 10732 10731 10731 10730
10764 10765 10766 10765 10764 10763 10763 10762 10762 10761 10762 10764 10766 10767 10766 10766 10765 10765 10765 10765 10764 10764 10764 10763 10764 10764 10764 10763 10763 10763 10761 10760 10760 10760 10760 10759 10758 10757 10756 10756 10756 10755 10755 10755 10755 10756 10755 10755 10755 10754 10752 10749 10748 10747 10748 10748 10747 10746 10745 10744 10743 10743 10742 10742 10741 10741 10741 10741 10741 10741 10741 10741 10740 10739 10738 10736 10735 10734 10733 10732 10731 10730 10729 10728 10728
10757 10758 10759 10759 10758 10757 10757 10757 10757 10757 10757 10759 10760 10761 10761 10761 10761 10761 10761 10761 10760 10760 10759 10759 10760 10760 10760 10759 10759 10759 10757 10756 10756 10756 10756 10756 10755 10754 10754 10753 10752 10752 10752 10751 10751 10752 10752 10752 10752 10751 10749 10747 10745 10744 10744 10744 10743 10743 10742 10741 10740 10740 10740 10739 10739 10739 10739 10739 10739 10739 10739 10738 10738 10737 10736 10735 10734 10732 10731 10730 10729 10728 10727 10726 10725
10751 10752 10752 10753 10751 10751 10751 10751 10752 10752 10753 10754 10755 10755 10756 10757 10757 10757 10756 10756 10756 10756 10755 10754 10755 10755 10756 10756 10755 10754 10754 10753 10753 10753 10753 10753 10752 10751 10751 10750 10749 10749 10748 10748 10748 10748 10749 10749 10749 10747 10745 10743 10742 10740 10740 10741 10740 10739 10739 10738 10738 10737 10738 10737 10736 10736 10736 10737 10737 10736 10736 10736 10736 10735 10734 10733 10732 10731 10730 10728 10727 10726 10725 10724 10723
10744 10746 10747 10746 10745 10744 10745 10745 10746 10747 10749 10749 10749 10750 10752 10753 10753 10753 10752 10751 10752 10752 10751 10750 10751 10751 10752 10752 10751 10750 10751 10750 10750 10750 10750 10750 10749 10748 10748 10747 10746 10745 10745 10745 10745 10745 10745 10746 10745 10744 10742 10740 10739 10737 10737 10738 10737 10736 10736 10736 10735 10735 10735 10734 10734 10734 10734 10734 10734 10734 10734 10734 10734 10733 10733 10731 10730 10729 10728 10727 10726 10725 10724 10722 10721
10737 10740 10740 10739 10738 10738 10739 10740 10741 10743 10744 10744 10745 10746 10747 10749 10748 10748 10748 10748 10748 10747 10746 10746 10747 10747 10748 10748 10747 10746 10747 10747 10747 10747 10747 10746 10746 10745 10744 10744 10743 10742 10742 10741 10741 10742 10742 10742 10742 10741 10739 10738 10737 10735 10735 10735 10734 10734 10734 10733 10733 10733 10732 10732 10732 10732 10732 10732 10732 10732 10731 10732 10732 10732 10731 10730 10728 10727 10726 10725 10725 10724 10722 10721 10720
10731 10733 10732 10731 10732 10732 10733 10735 10737 10738 10740 10740 10741 10742 10743 10744 10743 10743 10744 10745 10745 10743 10742 10743 10744 10744 10744 10744 10743 10743 10743 10743 10743 10743 10743 10743 10742 10742 10741 10741 10740 10739 10738 10738 10739 10739 10739 10739 10739 10738 10736 10735 10734 10733 10733 10732 10732 10731 10731 10731 10731 10731 10730 10729 10729 10729 10729 10729 10729 10729 10729 10730 10730 10729 10728 10727 10726 10726 10725 10724 10723 10722 10721 10720 10719
10723 10725 10725 10726 10726 10727 10729 10730 10732 10733 10735 10736 10736 10738 10739 10739 10738 10739 10740 10741 10741 10738 10737 10740 10742 10742 10740 10740 10739 10739 10739 10739 10739 10739 10739 10739 10739 10739 10738 10738 10737 10736 10735 10735 10736 10736 10736 10736 10735 10734 10733 10732 10731 10731 10730 10730 10729 10729 10729 10729 10729 10728 10727 10727 10727 10727 10726 10726 10726 10727 10727 10727 10727 10727 10726 10725 10724 10723 10723 10722 10721 10720 10719 10718 10717
10717 10718 10720 10720 10721 10723 10725 10726 10727 10728 10730 10731 10732 10734 10735 10734 10734 10734 10735 10738 10737 10734 10733 10736 10739 10738 10736 10735 10734 10735 10735 10735 10735 10735 10735 10736 10736 10736 10735 10735 10734 10733 10732 10732 10732 10732 10732 10732 10731 10731 10730 10729 10728 10727 10727 10726 10727 10727 10727 10727 10726 10725 10724 10724 10724 10724 10724 10724 10724 10725 10725 10725 10724 10724 10724 10723 10722 10721 10720 10719 10718 10718 10717 10716 10716
10711 10713 10714 10714 10715 10718 10720 10721 10722 10722 10724 10727 10729 10731 10730 10729 10730 10730 10730 10733 10733 10732 10731 10733 10735 10734 10731 10730 10730 10731 10731 10731 10731 10731 10732 10732 10732 10732 10732 10732 10731 10729 10729 10729 10729 10729 10729 10728 10727 10727 10726 10725 10724 10723 10723 10723 10724 10725 10724 10724 10722 10721 10721 10722 10722 10722 10722 10722 10722 10722 10722 10722 10721 10721 10721 10720 10720 10719 10718 10717 10716 10715 10715 10714 10713
10706 10708 10708 10708 10710 10713 10715 10716 10717 10718 10719 10723 10726 10728 10727 10724 10724 10726 10726 10727 10729 10730 10730 10731 10734 10733 10728 10726 10726 10727 10727 10727 10727 10727 10728 10729 10729 10729 10728 10728 10727 10726 10726 10726 10726 10726 10725 10724 10723 10722 10722 10721 10720 10720 10719 10719 10721 10722 10721 10720 10719 10718 10719 10719 10719 10719 10719 10720 10720 10720 10719 10719 10719 10718 10718 10718 10717 10716 10716 10715 10714 10713 10712 10711 10711
10702 10704 10703 10702 10705 10707 10709 10712 10713 10714 10715 10719 10722 10723 10722 10719 10719 10720 10721 10722 10724 10726 10728 10729 10731 10732 10727 10724 10723 10724 10724 10723 10723 10723 10724 10724 10724 10724 10724 10723 10722 10722 10722 10721 10721 10721 10721 10720 10719 10718 10717 10717 10717 10716 10715 10716 10718 10719 10718 10716 10716 10716 10716 10716 10717 10717 10717 10717 10717 10716 10716 10716 10715 10715 10716 10715 10715 10714 10713 10712 10711 10710 10709 10709 10708
10697 10698 10697 10697 10699 10702 10704 10707 10709 10709 10710 10713 10715 10715 10714 10714 10713 10715 10715 10717 10719 10721 10723 10724 10726 10726 10724 10721 10720 10720 10720 10720 10720 10720 10720 10719 10720 10720 10719 10719 10718 10718 10717 10717 10717 10716 10716 10716 10715 10714 10713 10713 10712 10712 10713 10714 10715 10715 10714 10713 10713 10713 10713 10714 10714 10714 10715 10714 10714 10713 10713 10713 10712 10712 10713 10712 10712 10711 10710 10710 10709 10708 10707 10706 10706
10691 10692 10691 10691 10694 10697 10699 10701 10704 10705 10705 10706 10708 10708 10709 10708 10708 10709 10711 10712 10714 10715 10717 10719 10719 10719 10719 10717 10717 10717 10717 10717 10716 10716 10716 10716 10717 10716 10715 10715 10714 10714 10714 10714 10713 10713 10713 10712 10711 10710 10709 10709 10708 10709 10710 10712 10713 10712 10711 10710 10710 10710 10711 10711 10711 10712 10712 10711 10711 10710 10710 10710 10709 10709 10709 10709 10709 10708 10708 10707 10706 10705 10704 10704 10703
10685 10686 10686 10686 10688 10692 10694 10696 10698 10699 10700 10701 10701 10703 10703 10703 10704 10705 10706 10708 10710 10711 10712 10713 10713 10713 10713 10713 10713 10713 10713 10713 10713 10712 10712 10713 10713 10713 10713 10712 10711 10711 10710 10710 10710 10710 10710 10709 10708 10707 10706 10705 10704 10705 10706 10708 10709 10709 10708 10707 10707 10707 10708 10708 10708 10709 10708 10708 10708 10707 10707 10707 10706 10706 10706 10706 10706 10705 10704 10704 10703 10702 10702 10701 10701
10679 10680 10681 10681 10683 10686 10689 10690 10692 10694 10695 10696 10696 10697 10698 10698 10699 10701 10702 10703 10705 10705 10706 10707 10708 10708 10708 10709 10709 10709 10709 10709 10710 10709 10709 10709 10710 10710 10710 10709 10709 10708 10707 10707 10707 10707 10707 10706 10705 10704 10702 10701 10701 10701 10702 10704 10705 10705 10705 10704 10704 10703 10704 10705 10705 10705 10705 10704 10704 10704 10704 10704 10703 10703 10703 10703 10703 10702 10701 10701 10700 10700 10699 10699 10698
10672 10674 10675 10676 10677 10680 10683 10684 10686 10688 10690 10690 10691 10692 10693 10694 10695 10697 10698 10699 10700 10701 10701 10702 10703 10703 10703 10704 10704 10705 10705 10705 10706 10706 10706 10706 10706 10707 10707 10706 10705 10704 10704 10704 10703 10703 10704 10703 10702 10701 10700 10698 10697 10698 10699 10700 10701 10701 10701 10701 10700 10700 10701 10702 10701 10701 10701 10701 10701 10700 10701 10700 10700 10700 10700 10700 10700 10699 10698 10698 10697 10697 10697 10696 10695
10666 10668 10669 10670 10672 10674 10677 10679 10681 10683 10684 10685 10686 10687 10688 10689 10690 10692 10694 10694 10695 10696 10696 10697 10698 10698 10699 10700 10700 10700 10700 10701 10702 10702 10702 10702 10703 10703 10703 10703 10702 10701 10700 10700 10699 10699 10700 10700 10699 10698 10697 10695 10695 10695 10695 10696 10697 10698 10698 10697 10696 10696 10696 10697 10697 10697 10697 10697 10697 10698 10698 10697 10698 10698 10698 10697 10696 10696 10695 10695 10695 10695 10694 10693 10692
10660 10662 10664 10665 10667 10668 10671 10673 10676 10677 10678 10679 10680 10682 10683 10684 10686 10687 10689 10689 10690 10691 10692 10692 10693 10693 10694 10695 10696 10695 10696 10696 10697 10698 10698 10699 10699 10699 10699 10699 10698 10697 10696 10696 10695 10695 10696 10696 10695 10695 10693 10692 10692 10692 10693 10693 10694 10694 10695 10694 10693 10692 10693 10694 10694 10694 10694 10694 10694 10695 10695 10695 10695 10695 10695 10694 10693 10693 10692 10692 10692 10692 10690 10689 10688
10655 10658 10659 10661 10663 10664 10666 10668 10670 10672 10673 10674 10675 10676 10678 10679 10680 10681 10683 10684 10685 10686 10687 10687 10688 10689 10689 10690 10691 10691 10691 10692 10692 10693 10694 10695 10695 10693 10694 10694 10693 10693 10692 10692 10692 10691 10692 10692 10692 10691 10690 10689 10689 10689 10690 10690 10691 10691 10691 10691 10690 10690 10690 10691 10691 10691 10691 10690 10690 10691 10691 10692 10692 10691 10691 10690 10690 10690 10689 10689 10689 10688 10687 10686 10684
10651 10654 10656 10658 10659 10661 10662 10664 10666 10667 10668 10669 10670 10671 10672 10674 10675 10676 10677 10678 10679 10680 10681 10682 10683 10684 10685 10686 10686 10686 10687 10687 10688 10689 10690 10691 10691 10689 10688 10689 10689 10689 10689 10688 10688 10687 10687 10687 10687 10687 10687 10686 10685 10686 10686 10687 10688 10687 10687 10686 10686 10687 10687 10687 10687 10687 10687 10687 10687 10688 10689 10689 10688 10688 10687 10687 10686 10686 10687 10687 10686 10685 10683 10682 10681
10648 10650 10652 10654 10656 10657 10659 10661 10662 10662 10663 10664 10665 10666 10667 10668 10669 10670 10671 10672 10673 10674 10676 10677 10678 10679 10680 10681 10682 10682 10682 10683 10683 10684 10685 10686 10686 10685 10684 10684 10684 10684 10684 10684 10684 10684 10683 10683 10683 10683 10683 10683 10682 10682 10682 10683 10684 10684 10683 10682 10682 10683 10684 10684 10684 10684 10684 10684 10684 10685 10686 10686 10685 10684 10683 10683 10682 10683 10683 10683 10682 10681 10680 10678 10678
10645 10647 10649 10650 10652 10654 10655 10656 10657 10657 10658 10658 10659 10660 10662 10663 10664 10665 10666 10667 10668 10669 10670 10671 10672 10674 10675 10676 10676 10677 10677 10678 10679 10679 10680 10680 10681 10680 10680 10680 10680 10680 10680 10680 10680 10680 10679 10679 10679 10679 10680 10679 10679 10679 10679 10679 10680 10680 10680 10679 10679 10680 10681 10681 10681 10680 10680 10680 10680 10681 10681 10681 10681 10680 10679 10678 10678 10679 10680 10679 10678 10677 10676 10675 10674
10641 10643 10645 10646 10648 10649 10650 10651 10652 10653 10653 10653 10654 10656 10657 10658 10659 10659 10660 10661 10662 10663 10664 10665 10667 10668 10669 10670 10671 10672 10672 10673 10674 10674 10674 10675 10675 10675 10675 10675 10675 10675 10675 10675 10676 10676 10676 10675 10675 10676 10676 10676 10676 10676 10676 10676 10675 10675 10676 10676 10676 10677 10677 10677 10677 10676 10676 10676 10676 10677 10677 10677 10676 10675 10674 10674 10675 10675 10676 10675 10673 10673 10672 10671 10670
10637 10639 10640 10642 10643 10645 10645 10646 10647 10648 10648 10649 10650 10651 10652 10653 10654 10654 10655 10656 10657 10658 10659 10660 10662 10663 10664 10666 10666 10667 10667 10668 10668 10668 10668 10669 10670 10670 10670 10671 10671 10671 10671 10671 10671 10672 10672 10672 10672 10672 10673 10673 10673 10673 10673 10672 10672 10671 10671 10672 10673 10673 10673 10673 10673 10672 10672 10672 10672 10673 10673 10673 10672 10671 10670 10670 10671 10672 10672 10671 10669 10668 10668 10667 10666
10633 10634 10636 10638 10639 10640 10640 10641 10642 10643 10643 10644 10645 10647 10647 10648 10649 10649 10651 10651 10652 10653 10654 10655 10657 10658 10660 10661 10662 10662 10662 10663 10663 10663 10663 10664 10664 10665 10665 10666 10666 10667 10666 10666 10667 10667 10667 10668 10668 10669 10670 10670 10670 10670 10670 10669 10668 10667 10666 10667 10669 10670 10669 10669 10669 10669 10668 10668 10669 10670 10670 10669 10668 10667 10666 10666 10668 10668 10668 10666 10665 10665 10664 10663 10662
10627 10629 10632 10633 10634 10634 10635 10636 10637 10638 10638 10640 10641 10642 10643 10643 10644 10645 10646 10647 10648 10648 10649 10650 10652 10653 10654 10656 10656 10657 10657 10658 10658 10659 10659 10659 10660 10661 10661 10662 10662 10662 10662 10662 10662 10662 10663 10663 10664 10665 10666 10666 10667 10666 10666 10666 10665 10664 10662 10661 10664 10665 10665 10665 10665 10665 10664 10664 10665 10666 10666 10665 10664 10663 10662 10663 10664 10664 10663 10662 10662 10661 10660 10659 10658
10622 10625 10627 10628 10629 10629 10630 10631 10632 10633 10634 10635 10636 10637 10638 10639 10640 10641 10642 10642 10643 10644 10644 10646 10647 10648 10649 10650 10650 10651 10652 10653 10654 10654 10654 10655 10656 10657 10657 10658 10658 10658 10658 10657 10657 10658 10659 10659 10660 10661 10661 10662 10662 10662 10662 10662 10662 10661 10658 10658 10659 10660 10661 10661 10661 10661 10661 10661 10662 10663 10663 10662 10660 10659 10658 10659 10660 10660 10658 10658 10658 10657 10656 10655 10654
10618 10620 10621 10623 10623 10624 10625 10626 10627 10628 10630 10631 10632 10633 10634 10634 10635 10636 10637 10638 10638 10639 10640 10641 10642 10643 10644 10644 10645 10646 10648 10648 10648 10649 10650 10651 10652 10653 10653 10654 10654 10654 10654 10653 10653 10654 10655 10655 10656 10656 10657 10658 10658 10659 10659 10659 10658 10657 10656 10655 10655 10656 10657 10657 10657 10656 10656 10657 10658 10659 10659 10658 10656 10655 10654 10654 10655 10655 10654 10654 10654 10653 10652 10651 10650